FW2602 Weather Reports


Display with metric or nautical units.
time (UTC)temp
F
wind
direction
speed
MPH
gust
MPH
rain 1hr
in
rain 24hr
in
rain mn
in
humidity
%
barometer
mb
20260506141019 55 323 0.0 3.0 0.07 0.22 0.19 94 1005.6
20260506140510 55 301 0.0 2.0 0.07 0.21 0.18 93 1005.7
20260506140019 55 258 0.0 2.0 0.06 0.20 0.17 93 1005.7
20260506135510 55 296 0.0 2.0 0.05 0.19 0.16 93 1005.8
20260506135018 55 278 0.0 1.0 0.04 0.18 0.15 93 1005.9
20260506134528 55 292 0.0 1.0 0.03 0.17 0.14 92 1005.9
20260506134012 55 292 0.0 0.0 0.02 0.16 0.13 92 1005.9
20260506133523 55 293 0.0 1.0 0.02 0.16 0.13 92 1005.8
20260506133007 55 293 0.0 3.0 0.02 0.16 0.13 92 1005.8
20260506132518 55 295 0.0 2.0 0.01 0.15 0.12 92 1005.6
20260506132021 55 303 0.0 3.0 0.02 0.15 0.12 92 1005.5
20260506131529 55 255 0.0 3.0 0.02 0.15 0.12 92 1005.6
20260506131014 54 272 1.0 3.0 0.03 0.15 0.12 92 1005.6
20260506130525 54 53 0.0 4.0 0.02 0.14 0.11 91 1005.4
20260506130008 55 290 2.0 4.0 0.03 0.14 0.11 91 1005.4
20260506125517 55 345 0.0 4.0 0.04 0.14 0.11 91 1005.3
20260506125006 55 314 1.0 5.0 0.05 0.14 0.11 91 1005.3
20260506124517 55 295 0.0 6.0 0.05 0.14 0.11 92 1005.3
20260506124020 54 338 1.0 6.0 0.06 0.14 0.11 92 1005.5
20260506123511 54 288 1.0 5.0 0.06 0.14 0.11 92 1005.7
20260506123017 54 301 1.0 4.0 0.07 0.14 0.11 92 1005.6
20260506122525 54 294 0.0 5.0 0.06 0.13 0.10 92 1005.7
20260506122011 54 269 1.0 5.0 0.07 0.13 0.10 92 1005.6
20260506121520 54 218 1.0 9.0 0.07 0.13 0.10 93 1005.7
20260506121011 54 342 1.0 9.0 0.06 0.12 0.09 93 1005.8
20260506120532 54 313 2.0 8.0 0.07 0.12 0.09 94 1006.1
20260506120034 53 262 2.0 8.0 0.06 0.11 0.08 95 1006.1
20260506115533 53 312 0.0 3.0 0.05 0.10 0.07 95 1006.1
20260506115033 53 111 0.0 3.0 0.05 0.09 0.06 95 1006.2
20260506114530 52 259 0.0 2.0 0.05 0.09 0.06 95 1006.3
20260506114032 52 168 0.0 2.0 0.04 0.08 0.05 95 1006.3
20260506113530 51 95 1.0 3.0 0.04 0.08 0.05 94 1006.2
20260506113029 51 74 0.0 4.0 0.03 0.07 0.04 93 1006.3
20260506112530 52 304 0.0 3.0 0.03 0.07 0.04 95 1006.3
20260506112029 52 86 0.0 2.0 0.02 0.06 0.03 95 1006.2
20260506111528 51 104 0.0 1.0 0.03 0.06 0.03 94 1006.2
20260506111030 51 104 0.0 2.0 0.03 0.06 0.03 93 1006.1
20260506110532 51 104 0.0 1.0 0.02 0.05 0.02 94 1006.0
20260506110027 51 95 0.0 2.0 0.02 0.05 0.02 94 1005.9
20260506105527 52 94 0.0 2.0 0.02 0.05 0.02 95 1005.8
20260506105030 51 91 0.0 3.0 0.01 0.04 0.01 95 1005.8
20260506104526 51 88 1.0 3.0 0.01 0.04 0.01 94 1005.9
20260506104025 50 84 0.0 1.0 0.01 0.04 0.01 94 1005.8
20260506103525 50 61 0.0 1.0 0.01 0.04 0.01 94 1005.9
20260506103035 50 64 0.0 2.0 0.01 0.04 0.01 93 1005.9
20260506102525 50 3 0.0 2.0 0.01 0.04 0.01 93 1006.0
20260506102025 50 293 0.0 2.0 0.01 0.04 0.01 93 1006.0
20260506101524 50 49 0.0 1.0 0.00 0.03 0.00 93 1006.0
20260506101023 50 48 0.0 1.0 0.00 0.03 0.00 93 1005.9
20260506100525 50 50 0.0 1.0 0.00 0.03 0.00 93 1005.8
20260506100124 50 49 0.0 1.0 0.00 0.03 0.00 93 1005.7
20260506095523 50 359 0.0 1.0 0.00 0.05 0.00 92 1005.8
20260506095021 50 295 0.0 1.0 0.00 0.05 0.00 92 1005.8
20260506094528 50 295 0.0 2.0 0.00 0.05 0.00 92 1005.9
20260506094024 50 295 0.0 3.0 0.00 0.05 0.00 91 1005.9
20260506093519 50 290 0.0 3.0 0.00 0.05 0.00 91 1005.8
20260506093020 50 253 0.0 2.0 0.00 0.05 0.00 90 1005.5
20260506092521 50 359 0.0 1.0 0.00 0.05 0.00 90 1005.6
20260506092021 51 37 0.0 1.0 0.00 0.05 0.00 90 1005.6
20260506091518 50 73 0.0 0.0 0.00 0.05 0.00 90 1005.7
20260506091016 51 73 0.0 0.0 0.00 0.05 0.00 89 1005.7
20260506090516 51 73 0.0 0.0 0.00 0.05 0.00 89 1005.5
20260506090016 51 74 0.0 1.0 0.00 0.05 0.00 89 1005.5
20260506085518 51 73 0.0 2.0 0.00 0.05 0.00 89 1005.6
20260506085015 51 73 0.0 2.0 0.00 0.05 0.00 89 1005.7
20260506084514 51 58 0.0 0.0 0.00 0.05 0.00 88 1005.8
20260506084013 51 58 0.0 0.0 0.00 0.05 0.00 88 1006.0
20260506083513 51 58 0.0 0.0 0.00 0.05 0.00 88 1006.0
20260506083013 51 58 0.0 1.0 0.00 0.05 0.00 88 1005.9
20260506082516 51 58 0.0 1.0 0.00 0.05 0.00 88 1006.0
20260506082011 51 84 0.0 2.0 0.00 0.05 0.00 88 1006.0
20260506081510 51 84 1.0 2.0 0.00 0.05 0.00 87 1006.0
20260506081010 51 84 0.0 1.0 0.00 0.05 0.00 87 1006.1
20260506080510 51 84 0.0 0.0 0.00 0.05 0.00 87 1006.3
20260506073505 52 85 0.0 0.0 0.00 0.05 0.00 86 1006.6
20260506073008 52 85 0.0 0.0 0.00 0.05 0.00 85 1006.6
20260506072505 52 84 0.0 1.0 0.00 0.05 0.00 85 1006.7
20260506072006 52 84 0.0 2.0 0.00 0.05 0.00 85 1006.6
20260506071505 52 84 0.0 2.0 0.00 0.05 0.00 85 1006.7
20260506071003 52 86 0.0 4.0 0.00 0.05 0.00 85 1006.6
20260506070505 52 77 1.0 4.0 0.00 0.05 0.00 85 1006.6
20260506062059 52 266 0.0 1.0 0.00 0.05 0.00 85 1007.0
20260506061556 52 265 0.0 1.0 0.00 0.05 0.00 85 1007.0
20260506061100 52 266 0.0 1.0 0.00 0.05 0.00 85 1007.1
20260506060555 52 265 0.0 1.0 0.00 0.05 0.00 85 1007.0
20260506060119 52 265 0.0 1.0 0.00 0.05 0.00 85 1007.1
20260506051050 52 265 0.0 0.0 0.00 0.05 0.00 84 1007.7
20260506050550 52 266 0.0 0.0 0.00 0.05 0.00 84 1007.7
20260506045050 53 265 0.0 1.0 0.00 0.05 0.00 83 1007.4
20260506044554 53 264 0.0 2.0 0.00 0.05 0.00 83 1007.6
20260506044046 53 253 0.0 2.0 0.00 0.05 0.00 83 1007.9
20260506043546 53 264 0.0 2.0 0.00 0.05 0.00 83 1007.9
20260506043045 53 297 1.0 2.0 0.00 0.05 0.00 84 1008.0
20260506042545 53 135 0.0 1.0 0.00 0.05 0.00 84 1007.9
20260506042045 53 136 0.0 0.0 0.00 0.05 0.00 84 1007.9
20260506041543 52 136 0.0 0.0 0.00 0.05 0.00 84 1008.0
20260506041042 53 136 0.0 0.0 0.00 0.05 0.00 84 1008.0
20260506040541 53 136 0.0 0.0 0.00 0.05 0.00 83 1007.9
20260506040042 53 135 0.0 0.0 0.00 0.05 0.00 83 1007.9
20260506035541 53 135 0.0 1.0 0.00 0.05 0.05 82 1008.0
20260506035039 54 136 0.0 1.0 0.00 0.05 0.05 81 1008.1
20260506034539 54 135 0.0 1.0 0.00 0.05 0.05 81 1008.2
20260506034039 54 135 0.0 1.0 0.00 0.05 0.05 81 1008.1
20260506033538 54 134 0.0 1.0 0.00 0.05 0.05 81 1008.0
20260506033038 54 132 0.0 3.0 0.00 0.05 0.05 81 1008.0
20260506032542 54 287 0.0 3.0 0.00 0.05 0.05 81 1008.2
20260506032041 54 296 0.0 3.0 0.00 0.05 0.05 81 1008.1
20260506031537 54 329 0.0 4.0 0.00 0.05 0.05 82 1008.3
20260506031040 54 70 0.0 5.0 0.00 0.05 0.05 82 1008.1
20260506030539 54 302 2.0 8.0 0.00 0.05 0.05 82 1008.1
20260506030037 54 267 1.0 8.0 0.00 0.05 0.05 83 1008.0
20260506025534 54 281 1.0 6.0 0.00 0.05 0.05 84 1008.1
20260506025033 54 301 3.0 5.0 0.00 0.05 0.05 85 1007.9
20260506024543 54 288 0.0 1.0 0.00 0.05 0.05 85 1007.9
20260506024031 55 100 0.0 1.0 0.00 0.05 0.05 84 1007.8
20260506023631 55 165 0.0 3.0 0.00 0.05 0.05 84 1007.8
20260506023031 55 98 1.0 3.0 0.00 0.05 0.05 83 1007.5
20260506022530 56 149 0.0 3.0 0.00 0.05 0.05 84 1007.7
20260506022027 57 116 0.0 6.0 0.00 0.05 0.05 83 1007.6
20260506021526 57 60 1.0 6.0 0.00 0.05 0.05 83 1007.7
20260506021026 58 271 0.0 5.0 0.00 0.05 0.05 84 1007.7
20260506020526 59 87 1.0 5.0 0.00 0.05 0.05 83 1007.5
20260506020023 60 136 1.0 3.0 0.00 0.05 0.05 83 1007.5
20260506015525 60 323 0.0 2.0 0.00 0.05 0.05 83 1007.2
20260506015024 60 274 0.0 2.0 0.00 0.05 0.05 83 1007.2
20260506014524 60 305 0.0 3.0 0.00 0.05 0.05 82 1007.2
20260506014022 60 302 0.0 3.0 0.00 0.05 0.05 82 1007.1
20260506013522 60 289 0.0 1.0 0.00 0.05 0.05 83 1006.8
20260506013022 61 290 0.0 6.0 0.00 0.05 0.05 82 1006.7
20260506012522 61 260 2.0 7.0 0.00 0.05 0.05 80 1006.7
20260506012024 62 296 4.0 7.0 0.00 0.05 0.05 77 1006.6
20260506011521 62 299 1.0 5.0 0.00 0.05 0.05 78 1006.3
20260506011021 62 255 1.0 5.0 0.00 0.05 0.05 77 1006.3
20260506010521 62 296 1.0 8.0 0.00 0.05 0.05 78 1006.2
20260506010021 62 296 2.0 8.0 0.00 0.05 0.05 78 1006.2
20260506005520 62 304 1.0 8.0 0.00 0.05 0.05 80 1006.2
20260506005020 61 299 3.0 6.0 0.00 0.05 0.05 84 1006.1
20260506004521 60 285 2.0 9.0 0.00 0.05 0.05 90 1006.1
20260506004020 59 276 6.0 11.0 0.00 0.05 0.05 93 1006.1
20260506003520 59 258 4.0 11.0 0.00 0.05 0.05 93 1006.1
20260506003020 59 267 3.0 11.0 0.00 0.05 0.05 93 1006.1
20260506002519 58 294 5.0 11.0 0.00 0.05 0.05 93 1005.8
20260506002019 58 265 6.0 10.0 0.00 0.05 0.05 92 1005.8
20260506001519 58 280 4.0 11.0 0.00 0.05 0.05 92 1005.8
20260506001018 59 295 5.0 12.0 0.00 0.05 0.05 91 1005.9
20260506000516 59 263 7.0 16.0 0.00 0.05 0.05 89 1005.9
20260506000016 62 283 9.0 16.0 0.00 0.05 0.05 80 1006.1
20260505235515 63 277 9.0 15.0 0.00 0.05 0.05 71 1006.3
20260505235015 63 262 7.0 14.0 0.00 0.05 0.05 71 1005.7
20260505234526 63 290 6.0 11.0 0.00 0.05 0.05 72 1005.5
20260505234015 64 262 7.0 13.0 0.00 0.05 0.05 71 1005.6
20260505233515 64 285 6.0 14.0 0.00 0.05 0.05 69 1005.4
20260505233019 63 316 7.0 14.0 0.00 0.05 0.05 70 1005.2
20260505232526 64 280 5.0 16.0 0.00 0.05 0.05 70 1005.2
20260505232010 64 205 7.0 16.0 0.00 0.05 0.05 70 1005.0
20260505231519 63 145 4.0 14.0 0.00 0.05 0.05 72 1005.0
20260505231002 63 278 5.0 11.0 0.00 0.05 0.05 72 1005.1
20260505230515 63 280 6.0 11.0 0.00 0.05 0.05 72 1005.1
20260505230042 63 255 6.0 13.0 0.00 0.05 0.05 72 1005.0
20260505225513 63 295 6.0 13.0 0.00 0.05 0.05 72 1004.9
20260505225015 63 260 4.0 10.0 0.00 0.05 0.05 72 1004.8
20260505224528 63 283 5.0 9.0 0.01 0.05 0.05 73 1004.8
20260505224014 63 273 5.0 9.0 0.01 0.05 0.05 72 1004.9
20260505223527 63 289 5.0 12.0 0.01 0.05 0.05 74 1004.8
20260505223010 62 302 5.0 12.0 0.02 0.05 0.05 75 1004.7
20260505222523 62 280 7.0 11.0 0.02 0.05 0.05 76 1004.8
20260505222009 61 280 7.0 11.0 0.02 0.05 0.05 77 1004.8
20260505221520 61 290 5.0 11.0 0.02 0.05 0.05 78 1004.9
20260505221010 60 305 5.0 13.0 0.02 0.05 0.05 81 1005.1
20260505220518 60 294 3.0 13.0 0.03 0.05 0.05 83 1005.4
20260505220004 60 280 8.0 16.0 0.03 0.05 0.05 83 1005.7
20260505215516 60 289 11.0 16.0 0.03 0.05 0.05 83 1005.7
20260505215021 60 274 8.0 17.0 0.03 0.05 0.05 84 1005.8
20260505214511 61 289 9.0 24.0 0.02 0.04 0.04 82 1005.9
20260505214017 61 294 10.0 24.0 0.02 0.04 0.04 81 1005.8
20260505213510 61 266 10.0 22.0 0.02 0.04 0.04 81 1006.1
20260505213016 62 307 13.0 22.0 0.01 0.03 0.03 81 1006.3
20260505212510 62 269 13.0 20.0 0.01 0.03 0.03 81 1006.1
20260505212016 62 298 12.0 20.0 0.01 0.03 0.03 80 1005.7
20260505211528 62 293 11.0 17.0 0.01 0.03 0.03 79 1005.5
20260505211014 64 269 10.0 21.0 0.01 0.03 0.03 75 1005.4
20260505210524 65 245 11.0 21.0 0.00 0.02 0.02 69 1005.6
20260505210015 68 314 3.0 14.0 0.00 0.02 0.02 61 1004.8
20260505205525 71 297 2.0 19.0 0.00 0.02 0.02 52 1004.5
20260505205014 74 273 4.0 11.0 0.00 0.02 0.02 38 1003.8
20260505204522 74 304 6.0 23.0 0.00 0.02 0.02 37 1003.4
20260505204010 74 296 7.0 22.0 0.00 0.02 0.02 37 1003.2
20260505203519 74 293 6.0 17.0 0.00 0.02 0.02 37 1003.2
20260505203002 74 288 6.0 21.0 0.00 0.02 0.02 37 1003.1
20260505202513 74 266 11.0 23.0 0.00 0.02 0.02 36 1003.0
20260505202021 74 274 15.0 23.0 0.00 0.02 0.02 37 1003.0
20260505201514 74 285 5.0 14.0 0.00 0.02 0.02 44 1002.9
20260505201016 75 292 8.0 14.0 0.00 0.02 0.02 42 1002.8
20260505200528 75 290 6.0 13.0 0.00 0.02 0.02 42 1002.6
20260505200012 75 301 8.0 15.0 0.00 0.02 0.02 42 1002.5
20260505195523 74 295 9.0 18.0 0.00 0.02 0.02 43 1002.5
20260505195006 74 283 10.0 18.0 0.00 0.02 0.02 45 1002.6
20260505194517 74 298 9.0 15.0 0.00 0.02 0.02 45 1002.6
20260505194011 73 285 7.0 20.0 0.00 0.02 0.02 45 1002.8
20260505193524 72 302 11.0 20.0 0.00 0.02 0.02 51 1003.0
20260505193009 71 290 9.0 21.0 0.00 0.02 0.02 50 1003.2
20260505192523 71 259 10.0 20.0 0.00 0.02 0.02 48 1003.4
20260505192004 71 300 11.0 24.0 0.00 0.02 0.02 49 1003.5
20260505191516 72 295 16.0 34.0 0.00 0.02 0.02 46 1003.5
20260505191020 73 280 20.0 34.0 0.00 0.02 0.02 40 1003.5
20260505190510 74 316 13.0 27.0 0.00 0.02 0.02 40 1003.5
20260505190017 74 295 13.0 29.0 0.00 0.02 0.02 40 1003.2
20260505185526 74 314 14.0 29.0 0.00 0.02 0.02 39 1003.2
20260505185012 75 298 13.0 26.0 0.00 0.02 0.02 39 1003.3
20260505184523 75 271 10.0 21.0 0.00 0.02 0.02 40 1003.3
20260505184012 75 222 12.0 24.0 0.00 0.02 0.02 39 1003.3
20260505183522 76 236 11.0 29.0 0.00 0.02 0.02 40 1003.2
20260505183010 75 293 16.0 32.0 0.00 0.02 0.02 38 1003.3
20260505182519 75 280 15.0 32.0 0.00 0.02 0.02 40 1003.2
20260505182005 75 307 10.0 20.0 0.00 0.02 0.02 40 1003.3
20260505181515 74 280 11.0 24.0 0.00 0.02 0.02 41 1003.3
20260505181020 74 221 12.0 24.0 0.00 0.02 0.02 41 1003.6
20260505180510 74 308 8.0 25.0 0.00 0.02 0.02 40 1003.3
20260505180036 74 291 9.0 25.0 0.00 0.02 0.02 40 1003.5
20260505175525 75 317 11.0 24.0 0.00 0.02 0.02 40 1003.5
20260505175011 75 249 13.0 33.0 0.00 0.02 0.02 40 1003.5
20260505174519 75 278 18.0 33.0 0.00 0.02 0.02 39 1003.4
20260505174004 75 256 13.0 25.0 0.00 0.02 0.02 39 1003.6
20260505173517 74 294 8.0 29.0 0.00 0.02 0.02 40 1003.6
20260505173017 75 297 17.0 29.0 0.00 0.02 0.02 39 1003.6
20260505172515 75 288 11.0 26.0 0.00 0.02 0.02 41 1003.9
20260505172019 74 310 16.0 26.0 0.00 0.02 0.02 43 1003.8
20260505171507 74 287 11.0 26.0 0.00 0.02 0.02 41 1003.9
20260505171016 74 293 12.0 24.0 0.00 0.02 0.02 41 1004.0
20260505170524 75 297 14.0 27.0 0.00 0.02 0.02 39 1004.2
20260505170013 74 248 13.0 27.0 0.00 0.02 0.02 40 1004.2
20260505165524 75 261 10.0 24.0 0.00 0.02 0.02 42 1004.4
20260505165014 74 277 12.0 25.0 0.00 0.02 0.02 43 1004.3
20260505164525 74 285 15.0 26.0 0.00 0.02 0.02 42 1004.5
20260505164008 74 298 14.0 28.0 0.00 0.02 0.02 44 1004.4
20260505163520 74 300 13.0 28.0 0.00 0.02 0.02 43 1004.4
20260505163004 74 290 18.0 28.0 0.00 0.02 0.02 40 1004.4
20260505162515 74 190 12.0 28.0 0.00 0.02 0.02 40 1004.6
20260505162020 74 217 15.0 28.0 0.00 0.02 0.02 40 1004.5
20260505161511 74 293 14.0 29.0 0.00 0.02 0.02 42 1004.5
20260505161018 73 277 14.0 34.0 0.00 0.02 0.02 42 1004.3
20260505160510 73 288 19.0 34.0 0.00 0.02 0.02 41 1004.6
20260505153010 72 280 15.0 31.0 0.00 0.02 0.02 47 1004.9
20260505152520 72 302 15.0 28.0 0.00 0.02 0.02 49 1004.9
20260505152018 72 300 13.0 30.0 0.00 0.02 0.02 49 1005.1
20260505151510 71 290 16.0 28.0 0.00 0.02 0.02 49 1005.1
20260505151015 71 276 19.0 28.0 0.00 0.02 0.02 49 1005.1
20260505150527 71 307 10.0 27.0 0.00 0.02 0.02 50 1004.9